WAT5233 KDFW-VHHH

Flight info

Callsign WAT5233
Flight time N/A
Altitude 30000
Route KDFW/36L DCT TTT DCT FERRA DCT SPS DCT MMB DCT GCK DCT GLD DCT SNY DCT CZI DCT HIA DCT GEG DCT HUH DCT YVR DCT UQQ DCT JOWEN DCT 58N150W DCT CHUUK DCT CREMR DCT EDWAL DCT NIKLL R220 NODAN R217 GTC Y142 SAMON Y14 DGC Y28 ISAKY Y592 ONIKU A593 PONIK Y711 MUGUS Y742 SALMI Q11 DRAKE DCT APU A1 ELATO V522 ABBEY ABEY4A VHHH/07C
Aircraft A346/H-SDE2E3FGHIJ3J4J5M1RWXY/LB1D1

Departure

Time 2026-05-06 07:24
Airport Dallas Fort Worth International Airport (KDFW)

Arrival

Time N/A
Airport Hong Kong International Airport (VHHH)
Time Latitude Longitude Altitude Speed Heading
2026-05-06 06:50 32.89828 -97.04598 606 ft 0 kts 86°
2026-05-06 07:08 32.89829 -97.04598 607 ft 0 kts 86°
2026-05-06 07:10 32.89829 -97.04599 606 ft 0 kts 86°
2026-05-06 07:11 32.89829 -97.04596 606 ft 0 kts 86°
2026-05-06 07:11 32.89829 -97.04600 607 ft 5 kts 86°
2026-05-06 07:11 32.89827 -97.04629 616 ft 15 kts 86°
2026-05-06 07:12 32.89826 -97.04655 623 ft 25 kts 86°
2026-05-06 07:12 32.89827 -97.04676 623 ft 3 kts 135°
2026-05-06 07:12 32.89830 -97.04679 623 ft 0 kts 172°
2026-05-06 07:13 32.89816 -97.04677 623 ft 3 kts 172°
2026-05-06 07:14 32.89780 -97.04671 620 ft 7 kts 172°
2026-05-06 07:14 32.89722 -97.04669 615 ft 10 kts 180°
2026-05-06 07:14 32.89642 -97.04670 623 ft 13 kts 180°
2026-05-06 07:14 32.89544 -97.04671 616 ft 15 kts 180°
2026-05-06 07:15 32.89429 -97.04672 614 ft 18 kts 180°
2026-05-06 07:15 32.89293 -97.04674 615 ft 21 kts 180°
2026-05-06 07:15 32.89160 -97.04728 620 ft 22 kts 220°
2026-05-06 07:15 32.89014 -97.04771 616 ft 21 kts 181°
2026-05-06 07:16 32.88987 -97.04772 614 ft 1 kts 180°
2026-05-06 07:16 32.88965 -97.04772 614 ft 6 kts 180°
2026-05-06 07:16 32.88912 -97.04772 615 ft 9 kts 179°
2026-05-06 07:16 32.88836 -97.04771 614 ft 12 kts 179°
2026-05-06 07:17 32.88744 -97.04770 615 ft 14 kts 179°
2026-05-06 07:17 32.88635 -97.04769 614 ft 17 kts 179°
2026-05-06 07:17 32.88509 -97.04788 615 ft 20 kts 197°
2026-05-06 07:17 32.88367 -97.04810 614 ft 22 kts 180°
2026-05-06 07:18 32.88227 -97.04810 615 ft 18 kts 180°
2026-05-06 07:18 32.88151 -97.04811 615 ft 0 kts 180°
2026-05-06 07:19 32.88150 -97.04811 614 ft 1 kts 180°
2026-05-06 07:19 32.88137 -97.04811 615 ft 3 kts 180°
2026-05-06 07:20 32.88108 -97.04810 615 ft 5 kts 179°
2026-05-06 07:20 32.88064 -97.04810 615 ft 0 kts 179°
2026-05-06 07:21 32.88058 -97.04810 615 ft 2 kts 179°
2026-05-06 07:21 32.88035 -97.04810 614 ft 4 kts 179°
2026-05-06 07:21 32.87995 -97.04810 615 ft 7 kts 179°
2026-05-06 07:21 32.87945 -97.04822 616 ft 8 kts 215°
2026-05-06 07:22 32.87916 -97.04881 620 ft 9 kts 257°
2026-05-06 07:22 32.87912 -97.04958 606 ft 10 kts 269°
2026-05-06 07:22 32.87912 -97.05045 606 ft 11 kts 271°
2026-05-06 07:22 32.87928 -97.05084 623 ft 5 kts 317°
2026-05-06 07:23 32.87962 -97.05092 625 ft 6 kts
2026-05-06 07:23 32.88096 -97.05091 615 ft 47 kts 360°
2026-05-06 07:23 32.88655 -97.05089 614 ft 111 kts
2026-05-06 07:23 32.89619 -97.05084 615 ft 163 kts
2026-05-06 07:24 32.90869 -97.05074 836 ft 189 kts
2026-05-06 07:24 32.92203 -97.04993 1494 ft 195 kts
2026-05-06 07:24 32.93541 -97.05200 2098 ft 208 kts 328°
2026-05-06 07:24 32.94537 -97.06462 2835 ft 210 kts 310°
2026-05-06 07:25 32.95398 -97.07917 3174 ft 220 kts 287°
2026-05-06 07:25 32.95786 -97.09715 3486 ft 231 kts 276°
2026-05-06 07:25 32.96063 -97.11676 3771 ft 248 kts 277°
2026-05-06 07:25 32.96394 -97.13745 4089 ft 264 kts 278°
2026-05-06 07:26 32.96802 -97.15928 4719 ft 266 kts 278°
2026-05-06 07:26 32.97230 -97.18069 5410 ft 266 kts 279°
2026-05-06 07:26 32.97669 -97.20218 6019 ft 267 kts 279°
2026-05-06 07:26 32.98120 -97.22365 6647 ft 267 kts 280°
2026-05-06 07:27 32.98576 -97.24506 7322 ft 265 kts 281°
2026-05-06 07:27 32.99034 -97.26633 8009 ft 263 kts 281°
2026-05-06 07:27 32.99495 -97.28767 8665 ft 261 kts 282°
2026-05-06 07:27 32.99932 -97.30778 9314 ft 260 kts 282°
2026-05-06 07:28 33.00389 -97.32890 9954 ft 259 kts 282°
2026-05-06 07:28 33.00850 -97.34999 10395 ft 266 kts 282°
2026-05-06 07:28 33.01825 -97.39491 10851 ft 292 kts 282°
2026-05-06 07:29 33.02345 -97.41891 11079 ft 305 kts 282°
2026-05-06 07:29 33.02886 -97.44391 11307 ft 317 kts 282°
2026-05-06 07:29 33.03449 -97.46989 11532 ft 330 kts 281°
2026-05-06 07:29 33.04032 -97.49690 11791 ft 341 kts 281°
2026-05-06 07:30 33.04630 -97.52454 12288 ft 345 kts 281°
2026-05-06 07:30 33.05233 -97.55235 12882 ft 346 kts 281°
2026-05-06 07:30 33.05836 -97.58025 13480 ft 348 kts 280°
2026-05-06 07:30 33.06444 -97.60841 13995 ft 352 kts 280°
2026-05-06 07:31 33.07053 -97.63686 14471 ft 355 kts 280°
2026-05-06 07:31 33.07664 -97.66545 15055 ft 355 kts 280°
2026-05-06 07:31 33.08289 -97.69405 15632 ft 357 kts 282°
2026-05-06 07:31 33.09289 -97.72151 16161 ft 366 kts 294°
2026-05-06 07:32 33.10812 -97.74636 16723 ft 377 kts 305°
2026-05-06 07:32 33.12779 -97.76766 17257 ft 386 kts 313°
2026-05-06 07:32 33.14879 -97.78778 17806 ft 388 kts 313°
2026-05-06 07:32 33.16997 -97.80788 18302 ft 390 kts 313°
2026-05-06 07:33 33.19125 -97.82803 18733 ft 392 kts 313°
2026-05-06 07:33 33.21267 -97.84835 19154 ft 394 kts 313°
2026-05-06 07:33 33.23392 -97.86853 19568 ft 396 kts 312°
2026-05-06 07:33 33.25554 -97.88908 19987 ft 398 kts 312°
2026-05-06 07:34 33.27726 -97.90975 20394 ft 400 kts 312°
2026-05-06 07:34 33.29912 -97.93058 20789 ft 402 kts 312°
2026-05-06 07:34 33.32109 -97.95152 21189 ft 405 kts 312°
2026-05-06 07:34 33.34317 -97.97257 21596 ft 407 kts 311°
2026-05-06 07:35 33.36537 -97.99375 21987 ft 409 kts 311°
2026-05-06 07:35 33.38775 -98.01513 22366 ft 411 kts 311°
2026-05-06 07:35 33.41019 -98.03658 22732 ft 414 kts 311°
2026-05-06 07:35 33.43273 -98.05819 23171 ft 415 kts 312°
2026-05-06 07:36 33.45529 -98.07984 23595 ft 416 kts 312°
2026-05-06 07:36 33.47795 -98.10149 23944 ft 417 kts 311°
2026-05-06 07:36 33.50069 -98.12325 24259 ft 419 kts 311°
2026-05-06 07:36 33.52347 -98.14508 24560 ft 421 kts 311°
2026-05-06 07:37 33.54641 -98.16708 24876 ft 423 kts 311°
2026-05-06 07:37 33.56939 -98.18914 25181 ft 424 kts 311°
2026-05-06 07:37 33.59251 -98.21137 25484 ft 426 kts 311°
2026-05-06 07:37 33.61575 -98.23372 25782 ft 428 kts 311°
2026-05-06 07:38 33.63905 -98.25615 26085 ft 430 kts 310°
2026-05-06 07:38 33.66244 -98.27868 26380 ft 432 kts 310°
2026-05-06 07:38 33.68593 -98.30132 26712 ft 434 kts 310°
2026-05-06 07:38 33.70948 -98.32402 27073 ft 433 kts 310°
2026-05-06 07:39 33.73303 -98.34673 27413 ft 434 kts 310°
2026-05-06 07:39 33.75667 -98.36958 27658 ft 437 kts 310°
2026-05-06 07:39 33.78043 -98.39259 27877 ft 440 kts 310°
2026-05-06 07:39 33.80438 -98.41578 28169 ft 442 kts 310°
2026-05-06 07:40 33.82833 -98.43895 28621 ft 441 kts 309°
2026-05-06 07:40 33.85225 -98.46208 29063 ft 440 kts 309°
2026-05-06 07:40 33.87604 -98.48511 29497 ft 438 kts 309°
2026-05-06 07:40 33.89976 -98.50813 29901 ft 437 kts 309°
2026-05-06 07:41 33.92339 -98.53105 30295 ft 437 kts 309°
2026-05-06 07:41 33.94743 -98.55298 30533 ft 442 kts 311°
2026-05-06 07:41 33.97296 -98.57413 30739 ft 448 kts 314°
2026-05-06 07:41 33.99969 -98.59407 31003 ft 454 kts 316°
2026-05-06 07:42 34.02751 -98.61263 31318 ft 458 kts 319°
2026-05-06 07:42 34.05622 -98.62963 31651 ft 462 kts 322°
2026-05-06 07:42 34.08553 -98.64549 31966 ft 462 kts 322°
2026-05-06 07:42 34.11497 -98.66113 32252 ft 462 kts 322°
2026-05-06 07:43 34.14436 -98.67669 32537 ft 461 kts 322°
2026-05-06 07:43 34.17372 -98.69223 32887 ft 460 kts 322°
2026-05-06 07:43 34.20302 -98.70773 33190 ft 458 kts 321°
2026-05-06 07:43 34.23211 -98.72316 33532 ft 456 kts 321°
2026-05-06 07:44 34.26110 -98.73859 33846 ft 454 kts 321°
2026-05-06 07:44 34.28999 -98.75400 34107 ft 453 kts 321°
2026-05-06 07:44 34.31879 -98.76938 34316 ft 452 kts 321°
2026-05-06 07:44 34.34760 -98.78479 34502 ft 452 kts 321°
2026-05-06 07:45 34.37639 -98.80020 34654 ft 453 kts 321°
2026-05-06 07:45 34.40523 -98.81565 34805 ft 453 kts 321°
2026-05-06 07:45 34.43373 -98.83090 35017 ft 454 kts 321°
2026-05-06 07:45 34.46257 -98.84631 35214 ft 452 kts 320°
2026-05-06 07:46 34.49133 -98.86171 35400 ft 451 kts 320°
2026-05-06 07:46 34.52002 -98.87710 35527 ft 452 kts 320°
2026-05-06 07:46 34.54879 -98.89257 35628 ft 453 kts 320°
2026-05-06 07:46 34.57765 -98.90809 35754 ft 453 kts 320°
2026-05-06 07:47 34.60654 -98.92363 35877 ft 454 kts 320°
2026-05-06 07:47 34.63543 -98.93917 35955 ft 455 kts 320°
2026-05-06 07:47 34.69331 -98.97032 35996 ft 454 kts 320°
2026-05-06 07:48 34.75113 -99.00149 35970 ft 454 kts 320°
2026-05-06 07:48 34.80894 -99.03272 35999 ft 454 kts 320°
2026-05-06 07:49 34.86663 -99.06393 35997 ft 454 kts 320°
2026-05-06 07:49 34.92440 -99.09522 36047 ft 454 kts 320°
2026-05-06 07:50 34.98217 -99.12659 36022 ft 455 kts 320°
2026-05-06 07:50 35.03037 -99.15278 36009 ft 455 kts 320°
2026-05-06 07:51 35.08825 -99.18427 36004 ft 455 kts 320°
2026-05-06 07:51 35.14612 -99.21580 35999 ft 455 kts 320°
2026-05-06 07:52 35.20384 -99.24728 36038 ft 454 kts 320°
2026-05-06 07:52 35.26158 -99.27886 36034 ft 454 kts 320°
2026-05-06 07:53 35.31923 -99.31044 36034 ft 454 kts 320°
2026-05-06 07:53 35.37684 -99.34204 36029 ft 454 kts 320°
2026-05-06 07:54 35.43444 -99.37363 36038 ft 452 kts 320°
2026-05-06 07:54 35.49187 -99.40523 36028 ft 452 kts 319°
2026-05-06 07:55 35.54922 -99.43686 36023 ft 452 kts 319°
2026-05-06 07:55 35.60660 -99.46853 36031 ft 452 kts 319°
2026-05-06 07:56 35.66404 -99.50030 36024 ft 452 kts 319°
2026-05-06 07:56 35.72107 -99.53187 36029 ft 452 kts 319°
2026-05-06 07:57 35.77847 -99.56369 36032 ft 452 kts 319°
2026-05-06 07:57 35.83583 -99.59555 36031 ft 452 kts 319°
2026-05-06 07:58 35.89324 -99.62748 36052 ft 452 kts 319°
2026-05-06 07:58 35.95045 -99.65935 36036 ft 451 kts 319°
2026-05-06 07:59 36.00780 -99.69137 36051 ft 451 kts 319°
2026-05-06 07:59 36.06500 -99.72335 36061 ft 451 kts 319°
2026-05-06 08:00 36.12215 -99.75534 36114 ft 451 kts 319°
2026-05-06 08:00 36.17933 -99.78741 36085 ft 451 kts 319°
2026-05-06 08:01 36.23648 -99.81953 36085 ft 451 kts 319°
2026-05-06 08:01 36.29370 -99.85173 36081 ft 452 kts 319°
2026-05-06 08:02 36.35068 -99.88380 36110 ft 454 kts 319°
2026-05-06 08:02 36.40908 -99.91463 36079 ft 457 kts 320°
2026-05-06 08:03 36.46770 -99.94519 36066 ft 456 kts 320°
2026-05-06 08:03 36.52627 -99.97590 36067 ft 456 kts 320°
2026-05-06 08:04 36.58480 -100.00672 36106 ft 456 kts 320°
2026-05-06 08:04 36.64325 -100.03759 36075 ft 456 kts 320°
2026-05-06 08:05 36.70167 -100.06851 36071 ft 456 kts 320°
2026-05-06 08:05 36.76009 -100.09948 36077 ft 456 kts 320°
2026-05-06 08:06 36.81851 -100.13050 36111 ft 456 kts 320°
2026-05-06 08:06 36.87693 -100.16158 36080 ft 456 kts 320°
2026-05-06 08:07 36.93532 -100.19268 36084 ft 456 kts 320°
2026-05-06 08:07 36.99430 -100.22418 36091 ft 458 kts 320°
2026-05-06 08:08 37.05289 -100.25552 36115 ft 459 kts 320°
2026-05-06 08:08 37.11162 -100.28696 36092 ft 459 kts 320°
2026-05-06 08:09 37.17039 -100.31846 36095 ft 459 kts 320°
2026-05-06 08:09 37.22911 -100.35000 36093 ft 459 kts 320°
2026-05-06 08:10 37.28780 -100.38160 36115 ft 459 kts 320°
2026-05-06 08:10 37.34654 -100.41327 36099 ft 459 kts 320°
2026-05-06 08:11 37.40491 -100.44479 36101 ft 459 kts 320°
2026-05-06 08:11 37.46362 -100.47655 36094 ft 459 kts 320°
2026-05-06 08:12 37.52240 -100.50842 36120 ft 460 kts 320°
2026-05-06 08:12 37.58120 -100.54034 36104 ft 460 kts 320°
2026-05-06 08:13 37.64005 -100.57233 36104 ft 460 kts 320°
2026-05-06 08:13 37.69895 -100.60445 36102 ft 462 kts 320°
2026-05-06 08:14 37.75806 -100.63673 36105 ft 463 kts 320°
2026-05-06 08:14 37.81722 -100.66904 36101 ft 463 kts 320°
2026-05-06 08:15 37.87640 -100.70144 36100 ft 463 kts 320°
2026-05-06 08:15 37.93482 -100.73494 36099 ft 457 kts 317°
2026-05-06 08:16 37.99143 -100.77120 36111 ft 455 kts 317°
2026-05-06 08:16 38.04758 -100.80755 36111 ft 455 kts 317°
2026-05-06 08:17 38.10434 -100.84431 36107 ft 455 kts 317°
2026-05-06 08:17 38.11348 -100.85023 36107 ft 455 kts 317°